Date,TemperatureHighF,TemperatureAvgF,TemperatureLowF,DewpointHighF,DewpointAvgF,DewpointLowF,HumidityHigh,HumidityAvg,HumidityLow,PressureMaxIn,PressureMinIn,WindSpeedMaxMPH,WindSpeedAvgMPH,GustSpeedMaxMPH,PrecipitationSumIn
2013-2-1,68,51,42,50,45,39,93,81,49,30.26,30.13,8,2,14,0.00
2013-2-2,59,48,43,50,45,41,95,89,73,30.30,30.23,6,0,9,0.00
2013-2-3,57,48,41,48,44,39,93,86,69,30.28,30.15,6,1,10,0.00
2013-2-4,60,47,39,51,43,37,95,87,69,30.20,30.07,5,1,9,0.01
2013-2-5,55,48,42,47,44,40,93,85,73,30.18,30.09,6,2,17,0.00
2013-2-6,59,47,38,48,41,35,92,80,61,30.22,30.14,7,2,12,0.00
2013-2-7,57,46,38,48,40,35,89,80,46,30.21,30.04,6,2,14,0.03
2013-2-8,54,44,37,43,38,34,93,80,56,30.04,29.97,9,2,16,0.02
2013-2-9,57,43,32,45,36,29,90,78,52,30.13,30.02,6,1,10,0.01
2013-2-10,60,44,33,48,38,30,92,79,56,30.14,30.02,6,2,10,0.00
2013-2-11,58,46,35,45,39,32,91,77,56,30.27,30.08,7,2,10,0.00
2013-2-12,59,47,39,45,39,34,90,75,51,30.38,30.27,7,2,11,0.00
2013-2-13,63,48,37,48,40,34,90,76,46,30.36,30.23,6,1,9,0.00
2013-2-14,71,53,38,50,42,35,90,70,42,30.25,30.14,6,1,8,0.00
2013-2-15,76,59,44,47,41,35,78,56,23,30.26,30.18,7,2,12,0.00
2013-2-16,75,58,48,49,43,37,89,60,26,30.22,30.05,7,2,12,0.00
2013-2-17,60,49,41,48,44,40,95,85,65,30.09,29.98,6,1,9,0.00
2013-2-18,52,46,41,46,41,38,93,82,64,30.09,30.01,5,1,9,0.00
2013-2-19,48,43,35,46,39,32,93,86,74,30.02,29.79,7,1,28,0.38
2013-2-20,59,45,32,44,37,30,94,76,39,30.10,29.86,13,2,23,0.01
2013-2-21,60,47,35,44,36,32,94,68,35,30.20,30.08,10,2,20,0.00
2013-2-22,62,48,36,49,40,32,85,77,61,30.27,30.19,7,2,12,0.00
2013-2-23,61,50,40,44,39,34,90,69,42,30.27,30.15,13,2,21,0.00
2013-2-24,63,52,39,36,30,23,82,47,25,30.28,30.16,12,2,21,0.00
2013-2-25,60,48,37,46,39,30,84,70,48,30.30,30.17,6,1,9,0.00
2013-2-26,66,50,38,48,39,28,88,69,24,30.23,30.12,7,2,12,0.00
2013-2-27,70,51,38,48,40,31,87,67,26,30.39,30.22,6,1,10,0.00
2013-2-28,66,52,42,53,46,39,91,80,59,30.47,30.37,5,1,9,0.00